Wind_Speed
30 30 31 32 34 34 31 28 27 28 29 29 29 29 27 27 26 26 25 24 23 22 22 22 21 20 20 19 17 16 15 14 13 13 12 11 9 9 8 7 6 6 5 4 4 4 4 4 4
31 32 33 35 35 34 30 27 27 29 31 31 32 31 29 29 28 28 27 25 25 24 24 23 23 22 21 20 19 18 17 16 15 14 13 12 11 10 9 8 7 6 6 5 5 4 4 4 4
34 35 36 37 36 33 30 28 29 30 32 33 34 33 32 30 30 29 29 27 26 26 25 25 24 24 23 22 21 19 18 17 16 15 14 13 12 11 10 9 8 7 6 5 5 5 4 4 4
37 38 39 39 36 33 32 32 32 33 33 34 35 35 34 32 31 31 31 30 29 28 27 26 26 25 24 24 23 21 19 19 18 16 16 15 14 13 11 10 9 8 7 6 5 5 4 4 4
40 41 42 40 37 34 34 35 35 35 35 35 36 36 35 34 33 33 33 32 31 30 29 28 27 26 26 25 24 23 21 20 19 18 17 16 15 14 13 11 10 9 8 7 6 5 4 4 4
43 44 44 42 38 36 36 37 38 38 37 37 38 38 37 36 36 35 35 35 33 32 31 30 29 28 27 26 26 25 23 22 21 19 19 17 16 15 14 12 11 10 9 8 7 6 5 5 5
44 46 46 43 41 39 38 39 40 40 40 40 40 40 39 39 38 37 37 36 35 34 33 32 31 29 28 27 27 26 25 24 23 21 20 19 18 16 15 14 13 11 10 9 8 7 6 6 6
45 47 47 45 43 41 40 42 42 42 42 42 43 42 41 41 40 39 38 38 37 36 35 34 32 31 29 29 28 27 26 26 24 23 21 20 19 18 17 15 14 13 12 11 10 9 8 7 7
47 49 48 46 45 44 43 43 44 45 45 45 45 44 43 43 42 41 40 39 38 37 36 36 34 33 31 30 29 28 28 27 26 24 23 22 20 19 18 17 15 14 13 12 11 10 9 9 8
47 49 47 46 46 44 43 44 45 46 47 46 46 46 46 45 44 43 42 41 40 38 38 37 36 34 33 32 31 30 29 28 27 26 24 23 22 21 19 18 17 16 15 14 13 12 11 10 10
47 48 46 46 46 45 45 45 46 48 48 48 48 47 48 47 46 45 44 43 42 41 39 38 38 37 35 33 32 31 30 29 28 27 26 25 23 22 21 19 18 17 16 15 14 13 13 12 12
47 47 47 46 47 46 46 47 48 49 48 49 50 50 50 49 47 47 46 45 44 43 41 40 39 38 37 35 34 32 31 30 29 28 27 26 25 23 22 21 19 18 17 17 16 15 14 14 14
45 46 48 47 47 47 47 48 48 49 49 50 51 51 51 50 49 49 48 47 46 45 43 42 40 40 39 37 35 34 33 32 31 30 29 27 26 24 23 22 20 20 19 18 17 16 16 16 15
43 45 47 47 47 47 48 48 50 48 49 51 51 52 52 51 51 50 49 49 48 47 45 44 42 41 40 39 37 36 35 33 32 31 30 29 28 26 25 23 22 21 20 19 18 18 17 17 17
41 43 45 46 47 47 49 50 49 48 49 51 52 52 54 53 52 51 50 50 49 48 47 45 44 42 42 41 39 38 37 35 33 33 32 30 29 28 26 24 23 22 21 20 20 19 18 18 18
40 42 44 45 46 46 49 49 47 49 50 50 52 53 54 54 53 52 51 51 50 49 48 47 45 44 43 42 41 40 38 37 35 34 33 31 30 29 28 26 25 23 22 21 21 20 19 19 19
39 41 42 43 44 45 48 47 46 48 49 50 51 53 54 55 53 53 52 52 51 50 49 48 46 45 44 44 43 41 39 38 36 35 34 33 31 30 29 28 26 24 23 23 22 21 21 21 21
37 38 40 42 43 44 46 46 46 46 47 48 49 52 54 54 53 53 53 53 52 51 50 49 47 46 45 44 43 42 41 39 38 36 35 34 32 31 30 29 28 26 25 24 24 23 23 23 23
36 38 39 40 42 44 45 45 45 45 46 47 48 52 53 54 54 54 54 54 53 52 52 50 49 47 45 44 44 43 42 40 39 37 36 35 34 33 32 30 29 28 27 26 25 25 24 24 25
36 38 38 38 39 42 44 44 43 44 44 46 46 49 52 53 54 56 55 55 54 53 52 51 50 48 47 45 44 43 43 41 40 39 38 37 35 34 33 32 31 30 28 27 26 26 26 26 26
34 35 36 36 36 40 43 45 42 41 42 44 45 47 50 52 53 55 56 55 54 54 52 51 50 49 48 47 46 45 44 43 41 40 39 38 37 36 35 33 32 31 30 29 28 27 27 27 28
31 31 33 34 35 36 39 43 40 39 40 42 44 46 48 49 52 54 56 56 54 53 53 52 51 51 50 49 47 46 44 43 42 41 40 40 38 37 36 35 34 33 32 30 30 29 29 29 29
29 30 32 34 36 37 37 41 38 38 38 41 43 44 45 46 49 52 54 55 55 54 54 54 53 52 51 50 49 47 45 44 43 43 42 41 40 38 37 37 36 35 33 32 31 31 30 30 31
28 29 30 33 36 38 36 38 37 37 36 39 42 43 44 45 47 49 52 54 55 56 55 54 54 53 52 51 50 48 46 45 44 43 43 42 41 39 38 38 37 36 35 34 33 33 32 32 33
27 28 29 32 35 37 36 38 36 36 34 37 41 43 43 45 46 49 51 53 55 56 56 55 54 53 53 52 50 49 47 46 45 44 44 43 42 40 40 39 38 37 36 36 35 34 34 34 34
27 27 28 31 33 35 35 37 35 35 33 35 39 41 41 43 46 47 49 52 54 56 57 56 54 54 54 53 51 50 49 47 47 46 45 44 42 41 41 40 39 38 38 37 37 36 36 36 35
28 28 27 29 33 35 36 36 34 33 33 34 37 40 41 42 44 46 49 51 54 55 56 56 55 54 54 53 52 51 50 48 47 47 46 45 44 43 42 41 41 40 39 39 38 38 37 37 36
28 28 28 29 31 34 35 36 36 33 33 34 36 39 42 42 43 46 48 51 53 55 56 56 56 54 54 54 53 52 51 49 48 48 47 46 45 44 43 42 42 41 40 40 39 38 38 38 37
27 29 30 31 32 35 36 35 35 34 34 35 36 38 41 43 43 46 48 50 52 54 56 57 57 55 54 54 53 53 53 52 50 49 48 47 46 45 45 44 43 42 41 41 40 39 39 38 38
29 29 31 33 34 35 37 37 34 34 35 36 37 38 41 43 44 46 47 49 51 54 56 58 58 57 55 54 54 53 53 53 52 50 49 48 47 46 46 45 44 43 42 41 41 40 40 40 39
Wind_Direction
256 254 252 251 251 251 251 251 249 246 244 242 241 241 240 239 236 236 236 234 233 231 229 229 229 228 227 228 228 227 226 227 227 228 228 228 232 229 226 227 233 237 247 263 277 290 298 303 312
256 254 253 252 252 252 251 250 248 245 243 241 241 240 238 237 236 235 235 234 233 232 230 230 230 229 228 227 226 226 226 227 228 229 228 229 232 229 229 232 235 240 250 263 274 286 292 294 307
256 254 253 253 253 253 252 248 246 244 242 241 240 239 237 237 236 234 234 233 233 232 231 231 231 231 229 227 226 225 226 227 227 229 228 232 233 229 231 233 236 242 250 260 269 278 285 293 306
255 254 254 254 254 254 251 248 245 242 242 241 240 239 238 237 235 234 234 233 232 232 232 231 231 230 229 227 226 226 226 225 226 228 229 233 232 231 232 233 236 242 250 255 262 272 280 290 303
255 254 254 254 254 253 250 248 245 242 240 240 240 239 237 236 235 233 233 233 232 232 232 232 230 230 229 228 227 226 226 225 226 228 230 232 232 232 232 233 235 242 248 252 257 262 272 287 299
255 254 253 254 254 252 249 247 246 243 240 239 239 238 237 235 234 233 233 233 233 232 232 231 229 229 229 228 227 226 226 225 227 229 231 232 232 231 232 234 237 242 246 249 253 256 266 280 290
255 254 254 253 252 250 248 246 244 242 240 239 239 239 237 235 234 232 233 233 233 232 232 230 229 228 228 227 226 226 226 226 227 229 230 232 231 231 232 235 238 241 245 247 248 252 260 270 282
255 255 254 252 251 250 248 246 244 241 239 238 237 237 236 235 234 233 232 233 232 231 231 230 229 229 228 227 226 226 227 227 227 229 230 231 231 232 233 235 238 240 243 246 247 250 256 263 276
256 255 254 253 252 250 249 247 245 242 239 237 237 237 236 234 233 232 231 231 231 230 230 229 229 229 228 228 227 227 227 227 228 229 230 231 231 233 234 235 238 240 243 245 246 250 254 259 272
255 255 255 254 253 251 249 247 245 242 239 237 236 236 235 234 232 231 230 230 230 229 228 227 228 228 228 227 228 228 228 227 228 229 229 230 232 233 234 235 237 240 243 244 246 251 254 259 270
255 256 255 254 252 250 247 245 243 242 238 236 236 236 235 233 231 230 229 229 228 228 227 226 226 227 227 227 227 228 228 228 228 229 229 231 232 233 234 235 237 240 242 244 246 250 254 259 269
256 255 254 254 251 249 247 244 241 240 239 236 235 235 233 231 231 230 228 228 227 227 227 226 226 226 226 226 226 226 227 228 228 229 230 231 232 233 234 235 238 240 242 243 247 250 254 260 269
257 255 254 253 251 249 246 243 241 239 238 236 235 235 233 231 230 229 228 227 226 226 226 225 226 226 226 225 225 225 227 228 228 229 229 230 232 233 234 235 238 240 242 245 248 251 255 261 269
259 258 255 252 251 248 245 243 241 238 238 237 236 234 232 230 229 228 227 226 226 226 226 226 226 226 225 225 225 225 227 228 228 228 229 230 232 233 233 235 238 240 242 245 248 252 256 263 270
259 258 254 251 250 249 246 243 241 238 238 237 236 234 231 230 229 228 227 226 226 226 226 226 226 225 225 225 225 226 227 228 228 228 228 230 231 232 233 235 238 240 242 245 248 252 257 264 271
258 257 255 251 250 248 246 244 240 238 238 237 236 234 231 229 228 227 227 226 225 225 226 226 226 225 225 225 225 226 227 227 228 228 229 230 231 232 233 234 237 240 243 245 249 253 258 265 271
258 258 256 252 249 247 246 244 238 238 238 236 234 233 231 228 227 227 226 226 225 225 225 226 226 226 226 226 226 226 226 227 227 228 229 230 232 232 233 234 237 240 243 247 250 255 260 266 272
259 258 257 253 248 247 247 244 239 238 237 236 234 232 230 227 226 226 225 225 225 224 224 225 226 226 226 226 226 226 226 227 227 229 230 231 232 232 233 235 237 241 244 248 252 256 261 267 272
261 260 259 256 251 248 246 243 239 238 238 237 235 232 229 226 225 225 224 224 224 224 223 224 225 226 226 226 227 227 227 227 228 230 231 232 232 233 233 235 237 241 245 248 253 258 262 267 272
260 259 258 257 253 250 246 244 240 238 238 237 235 232 229 227 224 224 224 224 224 223 223 224 225 226 226 227 227 227 228 228 229 230 231 232 233 233 233 235 237 241 245 248 253 258 263 267 271
260 259 257 257 254 252 249 245 242 238 237 235 234 231 228 228 226 224 224 224 223 223 223 224 225 226 227 227 227 228 228 229 230 231 232 233 233 234 233 235 238 241 245 249 254 258 263 267 272
263 258 256 255 254 254 251 250 244 240 236 234 232 231 230 230 228 225 224 224 223 223 223 224 225 225 226 227 228 229 230 231 231 231 232 233 234 234 235 236 238 242 245 250 254 259 263 267 272
264 261 258 257 254 254 251 251 246 241 237 232 230 229 231 229 229 227 225 224 224 223 222 224 225 225 226 227 228 229 230 231 231 231 232 233 234 236 236 237 239 242 246 250 255 259 264 268 271
263 261 260 257 255 253 250 251 247 241 239 233 229 228 229 228 228 227 226 224 223 223 222 223 225 226 227 227 228 229 229 230 231 232 233 234 235 237 238 240 242 244 247 251 255 259 264 268 271
261 260 261 259 255 254 252 251 248 242 239 234 230 229 228 228 227 226 226 225 223 223 223 223 224 225 226 227 228 229 230 231 232 232 233 235 236 237 239 241 244 246 249 252 256 259 264 268 271
259 259 260 259 257 256 252 250 247 243 241 237 233 230 229 227 226 226 227 226 224 223 223 224 224 225 226 227 227 228 230 231 232 233 234 235 237 238 240 242 244 247 250 253 256 259 263 267 271
261 258 258 259 258 256 254 251 247 243 241 239 236 233 231 228 226 225 225 226 225 224 223 223 224 224 225 227 227 228 229 231 232 233 235 236 237 239 241 243 245 248 251 254 257 260 263 267 270
261 259 258 258 259 258 257 255 250 246 243 240 237 234 234 232 228 226 225 225 226 225 223 223 223 224 225 226 227 228 230 231 233 234 235 236 237 239 242 244 246 249 252 255 258 260 264 267 270
260 258 256 257 260 259 257 256 252 248 244 242 239 235 233 232 230 228 226 226 226 226 225 224 224 224 225 226 228 229 230 231 233 234 236 237 238 240 242 244 247 249 252 255 258 261 264 268 271
262 261 259 258 257 259 258 256 253 250 247 244 240 236 233 232 231 230 229 228 228 227 227 225 225 225 225 227 229 229 230 231 233 235 236 238 239 241 242 244 247 250 253 256 259 261 265 268 271
Height
5823 5824 5825 5826 5827 5829 5831 5836 5838 5840 5841 5842 5843 5845 5847 5850 5852 5856 5856 5856 5857 5859 5860 5861 5863 5865 5866 5867 5868 5869 5870 5871 5872 5872 5873 5873 5873 5873 5873 5873 5873 5872 5872 5871 5871 5870 5869 5868 5868
5817 5818 5818 5819 5820 5822 5827 5831 5833 5834 5835 5836 5837 5839 5841 5844 5846 5848 5850 5851 5853 5855 5856 5858 5859 5861 5863 5864 5865 5866 5868 5869 5869 5870 5871 5871 5871 5871 5872 5872 5871 5871 5870 5870 5869 5869 5868 5867 5866
5809 5810 5810 5811 5813 5818 5822 5825 5827 5827 5828 5830 5831 5833 5836 5839 5841 5843 5845 5847 5849 5850 5852 5854 5856 5857 5859 5861 5862 5864 5865 5866 5867 5868 5868 5869 5869 5869 5870 5870 5870 5869 5869 5868 5868 5867 5867 5866 5865
5801 5801 5802 5804 5807 5812 5815 5817 5819 5820 5822 5823 5825 5827 5830 5834 5836 5838 5839 5842 5844 5846 5848 5850 5852 5853 5855 5857 5859 5860 5862 5863 5864 5865 5866 5866 5867 5867 5867 5868 5868 5867 5867 5867 5866 5866 5865 5864 5863
5791 5792 5793 5794 5800 5805 5807 5809 5811 5812 5815 5817 5818 5821 5824 5827 5829 5831 5833 5836 5838 5841 5843 5845 5847 5849 5851 5853 5855 5857 5858 5859 5861 5862 5863 5864 5864 5865 5865 5865 5866 5865 5865 5865 5864 5864 5863 5863 5862
5781 5782 5783 5786 5792 5797 5799 5800 5802 5804 5807 5809 5811 5813 5817 5820 5822 5825 5827 5830 5832 5835 5837 5840 5842 5844 5846 5849 5851 5852 5854 5856 5857 5858 5860 5861 5861 5862 5862 5863 5863 5863 5863 5862 5862 5862 5861 5861 5860
5771 5771 5773 5777 5782 5786 5790 5791 5793 5796 5798 5801 5803 5805 5809 5812 5815 5818 5820 5823 5826 5829 5832 5834 5837 5839 5841 5844 5846 5848 5850 5852 5853 5855 5856 5857 5858 5859 5860 5860 5860 5860 5860 5860 5860 5859 5859 5858 5858
5759 5760 5762 5766 5771 5776 5779 5780 5783 5786 5789 5791 5793 5797 5801 5804 5807 5810 5814 5816 5819 5823 5826 5829 5831 5834 5836 5839 5841 5843 5845 5847 5849 5851 5852 5853 5854 5855 5856 5857 5857 5857 5857 5857 5857 5857 5856 5856 5855
5746 5747 5750 5756 5760 5765 5768 5769 5772 5775 5778 5781 5784 5788 5792 5795 5798 5802 5806 5809 5812 5816 5819 5822 5825 5828 5831 5833 5836 5838 5840 5842 5844 5846 5848 5849 5850 5852 5853 5853 5854 5854 5855 5855 5854 5854 5854 5853 5853
5733 5734 5740 5746 5748 5751 5755 5757 5760 5763 5767 5771 5774 5778 5782 5786 5790 5794 5798 5801 5805 5808 5812 5815 5819 5822 5825 5827 5830 5833 5835 5837 5840 5842 5843 5845 5847 5848 5849 5850 5850 5851 5851 5852 5851 5851 5851 5851 5850
5721 5724 5729 5732 5734 5737 5741 5744 5747 5750 5755 5761 5764 5768 5771 5776 5780 5784 5788 5793 5797 5800 5804 5808 5812 5815 5818 5821 5824 5827 5830 5832 5835 5837 5839 5841 5842 5844 5845 5846 5847 5847 5848 5848 5848 5848 5848 5847 5847
5709 5712 5715 5719 5721 5724 5727 5730 5733 5737 5744 5748 5752 5755 5760 5765 5770 5775 5779 5784 5788 5792 5796 5800 5804 5808 5811 5815 5818 5821 5824 5827 5829 5832 5834 5836 5838 5839 5841 5842 5843 5844 5844 5844 5845 5845 5844 5844 5843
5696 5700 5702 5705 5708 5711 5713 5716 5720 5725 5731 5735 5739 5744 5749 5754 5759 5764 5769 5774 5779 5783 5788 5792 5797 5801 5805 5808 5811 5815 5818 5821 5824 5826 5829 5831 5833 5835 5836 5838 5839 5839 5840 5841 5841 5841 5841 5840 5840
5685 5686 5689 5692 5694 5697 5699 5703 5706 5713 5717 5721 5726 5731 5737 5743 5748 5754 5759 5764 5770 5775 5779 5784 5788 5793 5797 5801 5805 5808 5811 5815 5818 5820 5823 5826 5828 5830 5832 5833 5834 5835 5836 5836 5837 5837 5837 5837 5836
5672 5673 5675 5679 5681 5684 5686 5689 5695 5702 5704 5708 5714 5719 5725 5731 5737 5743 5749 5755 5760 5765 5770 5775 5780 5784 5789 5793 5797 5801 5804 5808 5811 5814 5817 5820 5822 5825 5827 5828 5830 5831 5831 5832 5833 5833 5833 5832 5832
5660 5660 5662 5668 5670 5671 5673 5677 5686 5688 5691 5696 5701 5706 5712 5719 5725 5732 5738 5744 5750 5755 5761 5766 5771 5776 5781 5785 5789 5794 5797 5801 5805 5808 5811 5814 5817 5819 5821 5823 5825 5826 5827 5827 5828 5828 5828 5828 5827
5648 5649 5651 5656 5658 5660 5661 5666 5673 5675 5678 5683 5689 5694 5699 5707 5714 5721 5728 5734 5740 5746 5751 5757 5763 5768 5773 5777 5782 5786 5790 5794 5798 5801 5805 5808 5811 5813 5815 5818 5819 5820 5822 5822 5823 5823 5823 5823 5822
5638 5639 5641 5644 5647 5648 5650 5655 5660 5663 5666 5671 5676 5681 5687 5695 5703 5710 5716 5723 5729 5735 5742 5748 5754 5759 5764 5769 5774 5778 5783 5787 5791 5795 5798 5801 5804 5807 5809 5812 5813 5815 5816 5817 5818 5818 5818 5818 5817
5627 5629 5631 5634 5636 5636 5639 5644 5648 5651 5655 5659 5664 5669 5676 5684 5691 5698 5705 5711 5718 5725 5732 5739 5745 5751 5756 5761 5766 5771 5776 5780 5784 5788 5791 5794 5797 5800 5803 5805 5807 5809 5810 5811 5812 5812 5812 5812 5812
5618 5619 5621 5624 5625 5626 5629 5633 5638 5641 5645 5649 5653 5659 5666 5673 5679 5686 5694 5701 5708 5716 5723 5730 5736 5743 5748 5753 5758 5763 5768 5772 5776 5780 5784 5787 5790 5793 5796 5799 5801 5802 5804 5805 5806 5806 5806 5806 5806
5611 5612 5613 5614 5616 5617 5619 5623 5629 5632 5635 5639 5643 5648 5655 5662 5669 5676 5684 5691 5698 5706 5714 5721 5727 5734 5740 5745 5750 5755 5759 5764 5769 5773 5777 5780 5783 5786 5789 5792 5794 5796 5797 5798 5799 5800 5800 5800 5800
5603 5605 5605 5606 5607 5609 5612 5612 5621 5623 5626 5630 5635 5640 5646 5653 5659 5666 5674 5681 5689 5697 5705 5712 5718 5724 5730 5736 5741 5747 5752 5757 5762 5765 5769 5772 5775 5779 5782 5784 5787 5789 5791 5792 5793 5793 5793 5793 5793
5597 5598 5598 5599 5600 5602 5604 5604 5611 5614 5618 5623 5627 5632 5637 5643 5650 5657 5664 5672 5679 5687 5694 5701 5708 5714 5720 5726 5733 5738 5744 5748 5752 5756 5760 5764 5768 5771 5774 5777 5779 5782 5784 5785 5786 5786 5787 5787 5786
5591 5592 5592 5591 5592 5594 5597 5598 5603 5607 5611 5615 5619 5624 5629 5634 5640 5647 5653 5660 5668 5676 5683 5690 5698 5705 5711 5717 5723 5729 5735 5739 5744 5748 5752 5756 5760 5763 5767 5769 5772 5774 5776 5778 5778 5779 5779 5779 5779
5585 5586 5585 5585 5585 5587 5590 5591 5596 5600 5604 5607 5611 5615 5620 5625 5631 5637 5643 5649 5657 5665 5673 5680 5687 5695 5701 5708 5714 5720 5725 5730 5735 5740 5744 5748 5752 5756 5759 5762 5764 5767 5768 5770 5771 5771 5772 5772 5772
5579 5580 5580 5579 5579 5581 5582 5584 5590 5593 5596 5599 5602 5607 5611 5616 5621 5627 5633 5640 5647 5655 5662 5670 5677 5685 5691 5698 5705 5711 5716 5721 5726 5731 5736 5740 5744 5747 5750 5753 5756 5758 5760 5762 5763 5764 5764 5764 5764
5572 5572 5573 5573 5572 5573 5574 5577 5582 5586 5589 5592 5595 5599 5603 5607 5612 5618 5624 5630 5637 5644 5652 5660 5667 5674 5681 5688 5695 5701 5706 5712 5718 5722 5726 5731 5735 5738 5742 5745 5747 5750 5752 5753 5755 5756 5756 5756 5756
5567 5566 5567 5566 5565 5565 5567 5570 5574 5578 5581 5584 5587 5590 5593 5598 5602 5608 5614 5620 5627 5634 5641 5648 5657 5664 5671 5678 5684 5691 5697 5703 5708 5712 5717 5722 5726 5729 5733 5736 5738 5741 5743 5745 5746 5748 5748 5748 5748
5560 5560 5559 5559 5559 5559 5560 5566 5566 5569 5572 5575 5578 5580 5584 5588 5593 5598 5604 5610 5617 5624 5631 5638 5646 5654 5661 5667 5674 5680 5687 5692 5697 5703 5708 5712 5716 5720 5723 5727 5729 5732 5734 5736 5738 5739 5739 5740 5739
5552 5552 5552 5553 5552 5552 5552 5558 5558 5560 5562 5565 5568 5571 5574 5578 5583 5588 5594 5600 5606 5613 5620 5628 5636 5643 5650 5657 5664 5670 5676 5681 5687 5693 5698 5702 5706 5710 5714 5717 5720 5723 5725 5727 5729 5730 5730 5731 5730